Location: Newark
(25.1987°N, 100.3705°W)
Time: 04:21:04
(UTC+00:00)

Envisat - Pass Details

Date: 04 August 2021
Orbit: 764 x 766 km, 98.2° (Epoch: 26 September)

Event Time Altitude Azimuth Distance (km) Brightness Sun altitude
Rises 11:17:51 0° 22° (NNE) 3,230 7.0 -11.8°
Reaches altitude 10° 11:20:18 10° 30° (NNE) 2,301 6.4 -11.3°
Maximum altitude 11:25:02 39° 99° (E) 1,127 4.4 -10.4°
Drops below altitude 10° 11:29:44 10° 168° (SSE) 2,291 5.3 -9.4°
Sets 11:32:09 0° 176° (S) 3,214 6.0 -8.9°
